Location: Étavigny
(49.1201°N, 2.9800°E)
Time: 06:39:03
(UTC+00:00)

ATLAS CENTAUR R/B - Visible Passes

Search period start: 30 September 2023 00:00
Search period end: 10 October 2023 00:00
Orbit: 461 x 614 km, 64.7° (Epoch: 25 September)

Date Brightness Start Highest point End Pass type
(mag) Time Alt. Az. Time Alt. Az. Time Alt. Az.
30 Sep 3.9 04:11:02 10° N 04:12:51 13° NNE 04:14:38 10° NE visible
01 Oct 3.8 04:02:03 10° N 04:04:06 14° NNE 04:06:08 10° ENE visible
02 Oct 3.8 03:53:03 10° N 03:55:19 16° NNE 03:57:34 10° ENE visible
03 Oct 3.7 03:44:02 10° NNW 03:46:31 17° NNE 03:48:58 10° ENE visible
04 Oct 3.6 03:35:01 10° NNW 03:37:39 19° NNE 03:40:17 10° E visible
04 Oct 0.9 05:12:35 10° NW 05:16:09 69° SW 05:19:42 10° SSE visible
05 Oct 3.4 03:26:36 13° N 03:28:47 21° NE 03:31:34 10° E visible
05 Oct 1.0 05:03:38 10° NW 05:07:10 57° SW 05:10:41 10° SSE visible
06 Oct 3.2 03:18:35 19° N 03:19:52 23° NE 03:22:48 10° E visible
06 Oct 1.2 04:54:42 10° NW 04:58:10 47° WSW 05:01:37 10° SSE visible
07 Oct 3.0 03:10:44 26° NNE 03:10:55 26° NE 03:13:59 10° E visible
07 Oct 1.4 04:46:14 13° NW 04:49:07 39° WSW 04:52:29 10° SSE visible
08 Oct 3.3 03:03:05 24° ENE 03:03:05 24° ENE 03:05:06 10° ESE visible
08 Oct 1.6 04:38:35 23° WNW 04:40:02 33° WSW 04:43:18 10° S visible
09 Oct 3.9 02:55:37 13° ESE 02:55:37 13° ESE 02:56:11 10° ESE visible
09 Oct 1.9 04:31:08 28° SW 04:31:08 28° SW 04:34:02 10° S visible
09 Oct 3.4 18:26:36 10° SSE 18:27:06 12° SE 18:27:06 12° SE visible
